SCP
0 0 0 0 0 0 0 0 0 0 0 0 0 0 0 0 -0 0 -0 -0 -0 0 0 0 0 0 0 0 0 0 0 0 -0 0 0 0 0 0 0 0 0 0 0 0
0 0 0 0 0 0 0 0 0 0 0 0 0 0 0 0 0 0 0 -0 -0 0 0 0 1 0 0 1 1 0 0 0 0 0 0 0 0 0 0 0 0 0 0 0
0 0 0 0 0 0 0 0 0 0 0 0 0 0 0 0 0 0 0 0 -0 -0 1 1 0 0 0 1 1 1 1 1 1 1 1 1 1 1 0 1 1 1 1 1
0 0 0 0 0 0 0 0 0 0 0 0 0 0 0 0 0 0 0 0 0 0 0 1 0 0 1 1 1 1 1 1 0 0 1 1 1 1 1 2 1 1 1 1
0 0 0 0 0 0 0 0 0 0 0 0 0 0 0 0 0 0 0 0 0 0 0 0 1 1 1 0 1 1 0 1 1 1 1 2 2 2 2 2 2 2 2 1
0 0 0 0 0 0 0 0 0 0 0 0 0 0 0 0 0 0 0 0 0 0 -0 -0 -0 1 1 1 1 1 1 0 0 1 0 1 0 1 0 1 0 0 0 0
0 0 0 0 0 0 0 0 0 0 0 0 0 0 0 0 0 0 0 0 0 0 0 0 0 -0 -0 0 0 0 0 0 0 0 0 0 0 0 0 0 0 0 0 0
0 0 0 0 0 0 0 0 0 0 0 0 0 0 0 0 0 0 0 0 0 0 0 0 0 0 0 0 0 0 0 0 0 0 0 0 0 0 0 0 0 0 0 0
0 0 0 0 0 0 0 0 0 0 0 0 0 0 0 0 0 0 0 0 0 0 0 0 0 0 0 0 0 0 0 0 0 0 0 0 0 0 0 0 0 0 0 0
0 0 0 0 0 0 0 0 0 0 0 0 0 0 0 0 0 0 0 0 0 0 0 0 0 0 0 0 0 0 0 0 0 0 0 0 0 0 0 0 0 0 0 0
0 0 0 -0 0 0 0 0 0 0 0 0 0 0 -0 0 0 0 0 0 0 0 0 0 0 0 0 0 0 0 0 0 0 0 0 0 0 0 0 0 0 0 0 0
0 0 0 0 0 0 0 0 0 0 0 0 0 0 0 0 0 0 0 0 0 0 0 0 0 0 0 0 0 0 0 0 0 0 0 0 0 0 0 0 0 0 0 0
0 0 0 -0 -0 -0 0 0 0 0 0 0 0 0 0 0 0 0 0 0 0 0 0 0 0 0 0 0 0 0 0 0 0 0 0 0 0 0 0 0 0 0 0 0
-0 0 0 -0 -0 -0 -0 0 1 0 -0 0 0 0 0 0 0 0 0 0 0 0 0 0 0 0 0 0 0 0 0 0 0 0 0 0 0 0 0 0 0 0 0 0
-0 -0 0 -0 -0 -0 -0 -0 -0 -0 0 0 0 0 0 0 0 0 0 0 0 0 0 0 0 0 0 0 0 0 0 0 0 0 0 0 0 0 0 0 0 0 0 0
-0 -0 0 -0 -0 -0 -0 -0 -0 -0 0 0 0 0 0 0 0 0 0 0 0 0 0 0 0 0 0 0 0 0 0 0 0 0 0 0 0 0 0 0 0 0 0 0
-0 -0 -0 -0 -0 -0 -0 -0 0 0 0 0 0 0 0 0 0 0 0 0 0 0 0 0 0 0 0 0 0 0 0 0 0 0 0 0 0 0 0 0 0 0 0 0
-0 -0 -0 -0 -0 -0 -0 -0 0 -0 -0 -0 0 0 0 0 0 0 0 0 0 0 0 0 0 0 0 0 0 0 0 0 0 0 0 0 0 0 0 0 0 0 0 0
-0 -0 0 0 0 0 0 -0 -0 -0 -0 0 -0 -0 -0 0 0 0 0 0 0 0 0 0 0 0 0 0 0 0 0 0 0 0 0 0 0 0 0 0 0 0 0 0
-0 -0 -0 0 0 0 -0 -0 -0 -0 -0 -0 -0 0 0 0 0 0 0 0 0 0 0 0 0 0 0 0 0 0 0 0 0 0 0 0 0 0 0 0 0 0 0 0
0 0 0 0 0 0 -0 0 0 0 0 -0 -0 0 0 0 0 0 0 0 0 0 0 0 0 0 0 0 0 0 0 0 0 0 0 0 0 0 0 0 0 0 0 0
0 0 0 0 0 0 0 0 -0 0 0 0 0 -0 -0 0 0 0 0 0 0 0 0 0 0 0 0 0 0 0 0 0 0 0 0 0 0 0 0 0 0 0 0 0
0 0 0 0 0 0 0 0 0 0 0 0 0 0 0 0 0 0 0 0 0 0 0 0 0 0 0 0 0 0 0 0 0 0 0 0 0 0 0 0 0 0 0 0
0 0 0 0 0 0 0 0 0 0 0 0 0 0 0 0 0 0 0 0 0 0 0 0 0 0 0 0 0 0 0 0 0 0 0 0 0 0 0 0 0 0 0 0
0 0 0 0 0 0 0 0 0 0 0 0 0 0 0 0 0 0 0 0 0 0 0 0 0 0 0 0 0 0 0 0 0 0 0 0 0 0 0 0 0 0 0 0
0 0 0 0 0 0 0 0 0 0 0 0 0 0 0 0 0 0 0 0 0 0 0 0 0 0 0 0 0 0 0 0 0 0 0 0 0 0 0 0 0 0 0 0
0 0 0 0 0 0 0 0 0 0 0 0 0 0 0 0 0 0 0 0 0 0 0 0 0 0 0 0 0 0 0 0 0 0 0 0 0 0 0 0 0 0 0 0
Wind_Speed_500mb
25 20 18 19 20 14 23 20 17 9 17 10 5 1 7 6 8 6 18 26 39 58 62 53 49 47 51 47 46 43 42 42 42 38 36 36 35 36 36 36 36 34 33 30
24 21 21 27 25 19 18 14 22 12 19 3 7 8 3 10 15 13 2 12 22 39 47 50 45 46 41 42 43 42 41 41 39 41 39 37 38 37 37 39 34 32 33 33
21 6 17 23 30 27 25 11 19 20 13 8 8 7 7 9 13 13 13 2 13 24 30 34 40 34 35 35 37 53 48 42 42 40 43 42 40 40 36 38 36 33 28 25
18 9 22 4 9 11 17 19 17 21 10 5 7 11 7 8 9 9 4 8 7 11 22 26 22 30 27 29 38 34 32 40 34 40 40 39 47 42 38 43 41 35 28 28
13 20 15 15 10 15 19 24 15 15 5 6 7 11 5 7 7 4 7 9 11 17 17 27 32 27 25 32 40 48 55 40 51 45 38 41 45 45 42 37 36 30 27 32
17 14 16 11 14 2 9 23 23 11 8 11 9 14 12 6 5 6 10 16 20 23 29 31 26 29 34 30 25 32 33 28 27 26 27 32 42 54 57 49 42 35 32 33
17 13 16 9 3 5 13 4 9 13 13 16 10 13 10 7 10 12 12 19 23 27 31 34 36 30 25 27 31 34 27 21 17 16 19 18 28 44 44 48 43 36 31 28
4 10 19 8 6 15 10 6 12 17 15 12 11 12 10 9 11 15 19 18 19 24 26 27 33 28 27 26 25 23 20 18 13 5 8 12 6 17 32 45 45 34 23 24
6 12 3 4 16 9 15 12 3 16 13 18 19 17 12 12 14 17 19 22 22 22 24 22 20 23 26 26 20 24 20 13 13 14 13 9 8 11 21 13 10 11 10 2
6 11 13 15 22 24 25 18 10 14 23 24 20 19 16 13 14 15 22 26 24 21 23 26 25 21 21 27 23 16 11 10 13 13 10 9 12 11 12 13 11 6 2 1
18 26 16 21 17 12 20 18 16 24 26 28 24 26 21 18 17 17 20 25 29 30 31 33 30 24 28 26 19 13 16 17 12 10 9 12 17 13 11 10 8 7 9 8
16 13 9 4 12 8 11 19 21 23 28 28 29 26 26 22 20 20 22 23 26 29 33 34 32 33 32 31 24 22 23 24 22 20 20 18 14 12 8 6 5 8 13 14
22 6 13 21 21 22 27 16 11 13 19 34 31 30 25 25 22 24 23 26 26 28 29 30 29 29 30 29 26 26 24 24 23 20 19 15 15 11 8 7 5 4 6 8
21 18 21 30 29 27 26 29 13 19 19 22 26 28 30 31 28 26 25 26 27 28 29 30 31 32 31 30 29 26 26 26 18 17 17 16 17 17 14 11 8 6 4 4
35 30 13 26 31 33 28 31 35 28 25 25 26 27 26 27 27 27 26 24 25 26 26 27 28 30 29 28 26 22 19 18 17 15 14 13 12 10 9 8 7 6 4 2
35 32 20 33 39 36 35 35 31 28 25 26 27 27 24 23 24 24 24 23 20 20 22 22 26 28 25 22 19 15 14 12 11 10 7 7 6 4 4 3 4 5 4 5
30 36 31 33 40 40 39 34 27 30 30 29 27 25 23 22 23 22 21 18 15 16 18 19 21 19 16 14 12 11 8 6 5 5 4 4 5 7 8 9 11 12 11 15
27 36 40 44 44 41 36 31 27 31 33 33 30 27 23 21 22 24 23 21 18 17 15 15 16 14 9 5 8 5 4 2 2 2 5 4 6 8 11 12 14 15 16 21
30 31 37 40 42 42 40 35 27 27 33 33 32 30 25 22 21 21 21 19 17 16 17 18 17 14 11 8 2 2 4 5 8 7 7 13 14 11 13 15 16 17 18 18
36 35 36 39 40 38 40 35 29 28 32 32 30 29 25 23 22 21 20 18 15 14 21 17 17 14 13 16 15 9 10 11 14 16 16 15 17 19 21 25 25 23 22 22
40 38 41 43 41 37 38 38 34 30 32 32 32 28 25 21 19 17 15 16 16 22 17 20 16 13 11 13 13 11 14 15 17 20 22 23 25 27 29 28 28 29 29 29
47 43 45 49 45 40 40 39 36 34 34 33 31 29 25 21 20 20 18 14 13 13 12 10 11 15 10 8 7 7 8 10 14 17 19 23 27 30 32 33 32 34 38 33
47 46 45 49 50 44 44 43 39 38 38 38 37 32 26 24 22 19 15 18 17 19 16 15 13 13 9 9 5 1 4 7 10 14 17 21 24 28 31 35 40 42 41 40
42 44 45 44 42 42 48 46 41 39 39 39 35 32 31 31 23 16 17 20 21 22 20 16 10 4 11 5 5 4 5 8 11 13 15 19 20 24 28 31 34 37 40 43
39 41 44 47 44 42 43 46 40 40 40 38 36 34 31 25 20 21 20 23 21 20 20 13 9 10 9 6 2 2 6 8 12 15 20 25 31 37 34 29 29 33 36 39
41 44 45 44 40 41 42 42 41 43 44 42 37 35 33 27 25 25 27 24 25 24 16 13 10 7 7 5 6 8 8 11 14 19 24 24 31 40 36 30 32 31 31 32
38 40 39 37 38 40 39 39 41 44 46 43 40 38 35 30 31 31 30 29 25 22 20 16 12 9 8 11 10 11 11 14 19 21 23 25 31 38 35 32 31 32 36 33
Wind_Direction_500mb
283 285 277 273 282 240 256 263 283 21 263 277 207 104 58 38 48 179 226 224 220 210 211 208 204 203 204 204 208 207 210 212 215 219 220 221 219 229 233 234 243 250 249 249
280 264 266 259 241 247 264 278 270 257 275 36 192 189 77 27 15 16 297 205 207 203 207 210 202 205 203 205 207 210 213 220 224 229 232 234 234 230 233 234 237 238 246 250
279 30 278 252 248 237 257 273 283 268 23 164 182 182 46 34 35 10 18 219 198 202 207 211 208 205 203 202 215 218 220 224 226 232 236 239 240 235 229 232 233 236 238 241
274 268 242 34 5 303 283 278 272 280 278 284 71 106 72 35 56 20 42 95 127 177 195 210 195 212 210 223 217 227 238 239 254 245 240 239 242 236 229 233 233 234 229 235
262 255 261 262 210 234 236 252 221 268 197 157 147 134 103 48 51 59 46 102 105 144 143 193 217 209 218 244 214 225 242 238 245 252 252 251 241 236 231 233 233 220 218 232
263 285 267 54 46 296 279 259 226 220 173 178 197 240 102 103 87 108 81 113 113 131 144 147 152 168 183 189 194 209 221 217 208 220 243 262 254 237 241 247 237 231 233 244
256 244 274 82 153 207 237 57 310 200 178 171 225 23 99 125 110 117 146 111 113 120 126 129 129 136 152 175 180 180 180 192 231 258 260 253 262 250 245 234 234 244 248 253
256 262 262 52 174 252 7 325 270 215 190 159 125 114 120 136 122 117 126 142 136 127 117 127 125 129 132 139 134 131 138 136 121 135 171 92 275 246 250 221 235 216 228 226
290 318 41 256 268 271 274 298 312 206 178 150 147 132 131 123 112 111 125 131 133 137 131 121 123 123 145 140 130 131 138 147 143 153 158 151 134 101 93 78 94 103 117 118
266 219 268 269 256 250 244 247 206 167 154 151 147 129 131 122 110 108 111 121 125 145 146 143 135 134 126 139 148 140 130 139 164 172 168 181 180 175 147 144 157 147 162 229
252 262 256 250 246 242 226 224 184 170 170 153 147 154 154 143 121 113 108 110 119 121 117 112 117 130 138 145 150 151 145 134 131 140 161 174 164 171 165 183 186 193 217 224
281 6 277 57 157 139 172 180 179 176 156 154 160 158 148 137 131 128 117 114 113 111 117 118 118 119 115 114 121 129 132 130 127 120 111 118 133 144 150 161 175 218 225 226
285 185 152 150 139 130 129 119 148 161 189 154 156 152 145 137 134 126 122 118 117 116 114 114 114 118 119 116 118 123 126 127 124 121 114 114 116 109 112 126 134 166 201 177
220 172 160 173 168 161 163 116 132 161 169 150 146 143 139 133 124 128 126 123 121 118 115 113 114 113 112 115 116 116 119 113 109 110 113 117 112 114 117 114 106 115 141 155
211 205 203 185 169 170 169 159 167 171 164 158 155 148 143 137 129 123 121 120 120 117 115 115 113 115 115 112 107 107 108 116 121 118 120 123 119 121 117 104 98 113 109 125
205 199 188 181 180 173 168 166 166 165 162 164 164 161 159 155 145 140 135 131 121 124 120 117 121 117 110 106 105 109 117 124 119 110 117 137 143 165 191 191 206 208 221 237
196 196 190 192 185 180 180 179 174 171 165 159 155 154 154 160 162 155 149 144 134 130 132 135 142 130 117 110 112 117 124 126 132 120 143 170 208 224 242 241 248 251 248 240
219 212 200 191 188 187 185 181 180 180 176 172 169 163 159 157 160 162 159 160 154 152 154 157 161 171 165 143 125 122 114 128 144 208 230 247 235 239 248 253 263 264 266 267
215 208 191 192 187 184 185 181 179 184 182 173 172 175 174 165 160 160 163 166 170 173 185 179 182 179 190 214 197 245 241 261 284 286 275 274 292 276 274 275 274 268 264 257
209 200 188 185 180 180 182 178 175 175 179 178 177 177 174 170 170 172 175 178 190 201 208 199 217 214 215 238 237 239 257 270 280 280 281 278 279 276 273 272 266 260 262 260
199 190 178 173 173 175 181 176 173 171 174 176 176 172 174 169 167 172 183 203 219 226 206 220 209 215 226 228 249 255 255 266 278 283 283 285 286 287 282 277 271 270 268 263
193 187 183 172 174 175 180 179 177 174 170 170 171 167 162 158 155 159 164 179 185 179 157 163 167 179 189 151 203 229 256 277 286 288 291 289 286 285 284 281 276 273 263 258
189 186 183 181 178 180 179 181 181 181 178 175 173 171 168 167 164 160 165 174 167 168 156 161 171 166 160 138 136 103 330 325 315 310 304 298 292 286 281 277 275 274 270 267
186 185 182 180 177 174 176 179 183 182 181 180 176 172 170 166 163 156 170 160 168 148 164 163 162 156 111 131 111 75 40 12 354 339 330 326 315 299 291 284 278 273 268 269
181 178 177 174 173 179 180 184 179 178 176 174 176 176 173 177 179 162 154 160 170 158 162 177 173 142 145 164 180 320 352 346 335 337 335 333 332 324 305 287 280 278 272 264
170 173 176 176 181 183 184 182 182 183 180 181 182 182 181 180 174 168 162 171 170 176 182 187 181 169 214 248 271 289 301 312 329 326 327 323 326 334 331 308 286 278 266 264
166 168 170 173 180 179 181 183 186 187 187 190 188 186 185 184 180 172 176 170 182 184 191 198 212 223 229 249 263 276 293 304 303 312 318 322 320 325 333 329 318 301 286 276
Wind_Speed_850mb
25 20 18 19 20 14 23 20 17 9 17 10 5 1 7 6 8 6 18 26 39 58 62 53 49 47 51 47 46 43 42 42 42 38 36 36 35 36 36 36 36 34 33 30
24 21 21 27 25 19 18 14 22 12 19 3 7 8 3 10 15 13 2 12 22 39 47 50 45 46 41 42 43 42 41 41 39 41 39 37 38 37 37 39 34 32 33 33
21 6 17 23 30 27 25 11 19 20 13 8 8 7 7 9 13 13 13 2 13 24 30 34 40 34 35 35 37 53 48 42 42 40 43 42 40 40 36 38 36 33 28 25
18 9 22 4 9 11 17 19 17 21 10 5 7 11 7 8 9 9 4 8 7 11 22 26 22 30 27 29 38 34 32 40 34 40 40 39 47 42 38 43 41 35 28 28
13 20 15 15 10 15 19 24 15 15 5 6 7 11 5 7 7 4 7 9 11 17 17 27 32 27 25 32 40 48 55 40 51 45 38 41 45 45 42 37 36 30 27 32
17 14 16 11 14 2 9 23 23 11 8 11 9 14 12 6 5 6 10 16 20 23 29 31 26 29 34 30 25 32 33 28 27 26 27 32 42 54 57 49 42 35 32 33
17 13 16 9 3 5 13 4 9 13 13 16 10 13 10 7 10 12 12 19 23 27 31 34 36 30 25 27 31 34 27 21 17 16 19 18 28 44 44 48 43 36 31 28
4 10 19 8 6 15 10 6 12 17 15 12 11 12 10 9 11 15 19 18 19 24 26 27 33 28 27 26 25 23 20 18 13 5 8 12 6 17 32 45 45 34 23 24
6 12 3 4 16 9 15 12 3 16 13 18 19 17 12 12 14 17 19 22 22 22 24 22 20 23 26 26 20 24 20 13 13 14 13 9 8 11 21 13 10 11 10 2
6 11 13 15 22 24 25 18 10 14 23 24 20 19 16 13 14 15 22 26 24 21 23 26 25 21 21 27 23 16 11 10 13 13 10 9 12 11 12 13 11 6 2 1
18 26 16 21 17 12 20 18 16 24 26 28 24 26 21 18 17 17 20 25 29 30 31 33 30 24 28 26 19 13 16 17 12 10 9 12 17 13 11 10 8 7 9 8
16 13 9 4 12 8 11 19 21 23 28 28 29 26 26 22 20 20 22 23 26 29 33 34 32 33 32 31 24 22 23 24 22 20 20 18 14 12 8 6 5 8 13 14
22 6 13 21 21 22 27 16 11 13 19 34 31 30 25 25 22 24 23 26 26 28 29 30 29 29 30 29 26 26 24 24 23 20 19 15 15 11 8 7 5 4 6 8
21 18 21 30 29 27 26 29 13 19 19 22 26 28 30 31 28 26 25 26 27 28 29 30 31 32 31 30 29 26 26 26 18 17 17 16 17 17 14 11 8 6 4 4
35 30 13 26 31 33 28 31 35 28 25 25 26 27 26 27 27 27 26 24 25 26 26 27 28 30 29 28 26 22 19 18 17 15 14 13 12 10 9 8 7 6 4 2
35 32 20 33 39 36 35 35 31 28 25 26 27 27 24 23 24 24 24 23 20 20 22 22 26 28 25 22 19 15 14 12 11 10 7 7 6 4 4 3 4 5 4 5
30 36 31 33 40 40 39 34 27 30 30 29 27 25 23 22 23 22 21 18 15 16 18 19 21 19 16 14 12 11 8 6 5 5 4 4 5 7 8 9 11 12 11 15
27 36 40 44 44 41 36 31 27 31 33 33 30 27 23 21 22 24 23 21 18 17 15 15 16 14 9 5 8 5 4 2 2 2 5 4 6 8 11 12 14 15 16 21
30 31 37 40 42 42 40 35 27 27 33 33 32 30 25 22 21 21 21 19 17 16 17 18 17 14 11 8 2 2 4 5 8 7 7 13 14 11 13 15 16 17 18 18
36 35 36 39 40 38 40 35 29 28 32 32 30 29 25 23 22 21 20 18 15 14 21 17 17 14 13 16 15 9 10 11 14 16 16 15 17 19 21 25 25 23 22 22
40 38 41 43 41 37 38 38 34 30 32 32 32 28 25 21 19 17 15 16 16 22 17 20 16 13 11 13 13 11 14 15 17 20 22 23 25 27 29 28 28 29 29 29
47 43 45 49 45 40 40 39 36 34 34 33 31 29 25 21 20 20 18 14 13 13 12 10 11 15 10 8 7 7 8 10 14 17 19 23 27 30 32 33 32 34 38 33
47 46 45 49 50 44 44 43 39 38 38 38 37 32 26 24 22 19 15 18 17 19 16 15 13 13 9 9 5 1 4 7 10 14 17 21 24 28 31 35 40 42 41 40
42 44 45 44 42 42 48 46 41 39 39 39 35 32 31 31 23 16 17 20 21 22 20 16 10 4 11 5 5 4 5 8 11 13 15 19 20 24 28 31 34 37 40 43
39 41 44 47 44 42 43 46 40 40 40 38 36 34 31 25 20 21 20 23 21 20 20 13 9 10 9 6 2 2 6 8 12 15 20 25 31 37 34 29 29 33 36 39
41 44 45 44 40 41 42 42 41 43 44 42 37 35 33 27 25 25 27 24 25 24 16 13 10 7 7 5 6 8 8 11 14 19 24 24 31 40 36 30 32 31 31 32
38 40 39 37 38 40 39 39 41 44 46 43 40 38 35 30 31 31 30 29 25 22 20 16 12 9 8 11 10 11 11 14 19 21 23 25 31 38 35 32 31 32 36 33
Wind_Direction_850mb
283 285 277 273 282 240 256 263 283 21 263 277 207 104 58 38 48 179 226 224 220 210 211 208 204 203 204 204 208 207 210 212 215 219 220 221 219 229 233 234 243 250 249 249
280 264 266 259 241 247 264 278 270 257 275 36 192 189 77 27 15 16 297 205 207 203 207 210 202 205 203 205 207 210 213 220 224 229 232 234 234 230 233 234 237 238 246 250
279 30 278 252 248 237 257 273 283 268 23 164 182 182 46 34 35 10 18 219 198 202 207 211 208 205 203 202 215 218 220 224 226 232 236 239 240 235 229 232 233 236 238 241
274 268 242 34 5 303 283 278 272 280 278 284 71 106 72 35 56 20 42 95 127 177 195 210 195 212 210 223 217 227 238 239 254 245 240 239 242 236 229 233 233 234 229 235
262 255 261 262 210 234 236 252 221 268 197 157 147 134 103 48 51 59 46 102 105 144 143 193 217 209 218 244 214 225 242 238 245 252 252 251 241 236 231 233 233 220 218 232
263 285 267 54 46 296 279 259 226 220 173 178 197 240 102 103 87 108 81 113 113 131 144 147 152 168 183 189 194 209 221 217 208 220 243 262 254 237 241 247 237 231 233 244
256 244 274 82 153 207 237 57 310 200 178 171 225 23 99 125 110 117 146 111 113 120 126 129 129 136 152 175 180 180 180 192 231 258 260 253 262 250 245 234 234 244 248 253
256 262 262 52 174 252 7 325 270 215 190 159 125 114 120 136 122 117 126 142 136 127 117 127 125 129 132 139 134 131 138 136 121 135 171 92 275 246 250 221 235 216 228 226
290 318 41 256 268 271 274 298 312 206 178 150 147 132 131 123 112 111 125 131 133 137 131 121 123 123 145 140 130 131 138 147 143 153 158 151 134 101 93 78 94 103 117 118
266 219 268 269 256 250 244 247 206 167 154 151 147 129 131 122 110 108 111 121 125 145 146 143 135 134 126 139 148 140 130 139 164 172 168 181 180 175 147 144 157 147 162 229
252 262 256 250 246 242 226 224 184 170 170 153 147 154 154 143 121 113 108 110 119 121 117 112 117 130 138 145 150 151 145 134 131 140 161 174 164 171 165 183 186 193 217 224
281 6 277 57 157 139 172 180 179 176 156 154 160 158 148 137 131 128 117 114 113 111 117 118 118 119 115 114 121 129 132 130 127 120 111 118 133 144 150 161 175 218 225 226
285 185 152 150 139 130 129 119 148 161 189 154 156 152 145 137 134 126 122 118 117 116 114 114 114 118 119 116 118 123 126 127 124 121 114 114 116 109 112 126 134 166 201 177
220 172 160 173 168 161 163 116 132 161 169 150 146 143 139 133 124 128 126 123 121 118 115 113 114 113 112 115 116 116 119 113 109 110 113 117 112 114 117 114 106 115 141 155
211 205 203 185 169 170 169 159 167 171 164 158 155 148 143 137 129 123 121 120 120 117 115 115 113 115 115 112 107 107 108 116 121 118 120 123 119 121 117 104 98 113 109 125
205 199 188 181 180 173 168 166 166 165 162 164 164 161 159 155 145 140 135 131 121 124 120 117 121 117 110 106 105 109 117 124 119 110 117 137 143 165 191 191 206 208 221 237
196 196 190 192 185 180 180 179 174 171 165 159 155 154 154 160 162 155 149 144 134 130 132 135 142 130 117 110 112 117 124 126 132 120 143 170 208 224 242 241 248 251 248 240
219 212 200 191 188 187 185 181 180 180 176 172 169 163 159 157 160 162 159 160 154 152 154 157 161 171 165 143 125 122 114 128 144 208 230 247 235 239 248 253 263 264 266 267
215 208 191 192 187 184 185 181 179 184 182 173 172 175 174 165 160 160 163 166 170 173 185 179 182 179 190 214 197 245 241 261 284 286 275 274 292 276 274 275 274 268 264 257
209 200 188 185 180 180 182 178 175 175 179 178 177 177 174 170 170 172 175 178 190 201 208 199 217 214 215 238 237 239 257 270 280 280 281 278 279 276 273 272 266 260 262 260
199 190 178 173 173 175 181 176 173 171 174 176 176 172 174 169 167 172 183 203 219 226 206 220 209 215 226 228 249 255 255 266 278 283 283 285 286 287 282 277 271 270 268 263
193 187 183 172 174 175 180 179 177 174 170 170 171 167 162 158 155 159 164 179 185 179 157 163 167 179 189 151 203 229 256 277 286 288 291 289 286 285 284 281 276 273 263 258
189 186 183 181 178 180 179 181 181 181 178 175 173 171 168 167 164 160 165 174 167 168 156 161 171 166 160 138 136 103 330 325 315 310 304 298 292 286 281 277 275 274 270 267
186 185 182 180 177 174 176 179 183 182 181 180 176 172 170 166 163 156 170 160 168 148 164 163 162 156 111 131 111 75 40 12 354 339 330 326 315 299 291 284 278 273 268 269
181 178 177 174 173 179 180 184 179 178 176 174 176 176 173 177 179 162 154 160 170 158 162 177 173 142 145 164 180 320 352 346 335 337 335 333 332 324 305 287 280 278 272 264
170 173 176 176 181 183 184 182 182 183 180 181 182 182 181 180 174 168 162 171 170 176 182 187 181 169 214 248 271 289 301 312 329 326 327 323 326 334 331 308 286 278 266 264
166 168 170 173 180 179 181 183 186 187 187 190 188 186 185 184 180 172 176 170 182 184 191 198 212 223 229 249 263 276 293 304 303 312 318 322 320 325 333 329 318 301 286 276